{"data":{"norad_id":69098,"intl_designator":"2026-106B","name":"2026-106B","alt_names":[],"object_type":"PAYLOAD","status":"ACTIVE","operator":null,"country":"PRC","launch_date":"2026-05-15","launch_site_code":"JSC","launch_vehicle":null,"mission":null,"orbit_class":"UNKNOWN","rcs_meters":null,"size_class":null,"mass_kg":null,"dimensions":null,"purposes":[],"wikipedia_slug":null,"has_3d_model":false,"image_url":null,"decayed_at":null,"tle_current":{"epoch":"2026-05-15T19:54:07.899840Z","epoch_age_seconds":870611,"freshness":"AGED","line1":"1 69098U 26106B   26135.82925810  .00001026  00000+0  65499-4 0  9994","line2":"2 69098  97.5046 218.5086 0013053 280.0851  79.8906 15.10832199    21","mean_motion":15.10832199,"eccentricity":0.0013053,"inclination_deg":97.5046,"raan_deg":218.5086,"arg_perigee_deg":280.0851,"mean_anomaly_deg":79.8906,"bstar":6.5499e-5,"rev_number":2,"period_min":95.311709728792,"perigee_km":524.63875626102,"apogee_km":542.68269540408,"semimajor_km":6911.7977258325,"source":"CELESTRAK","updated_at":"2026-05-25T13:38:09.294065Z"}}}